Location: Banff
(51.1667°N, 115.5667°W)
Time: 20:28:05
(UTC+00:00)

Vanguard 1 Rocket - Pass Details

Date: 27 November 2020
Orbit: 655 x 4221 km, 34.3° (Epoch: 17 January)

Event Time Altitude Azimuth Distance (km) Brightness Sun altitude
Exits shadow 12:20:53 25° 239° (WSW) 5,369 10.8 -27.1°
Maximum altitude 12:31:47 42° 191° (S) 3,632 10.3 -25.4°
Drops below altitude 10° 12:43:18 10° 126° (SE) 4,280 11.6 -23.6°
Sets 12:46:10 0° 119° (ESE) 4,900 12.3 -23.2°
